National Weather Service United States Department of Commerce


000
ASUS42 KCAE 130710
RWRCAE
REGIONAL WEATHER ROUNDUP
NATIONAL WEATHER SERVICE COLUMBIA SC
200 AM EST WED DEC 13 2017

NOTE: "FAIR" INDICATES FEW OR NO CLOUDS BELOW 12,000 FEET WITH NO
SIGNIFICANT WEATHER AND/OR OBSTRUCTIONS TO VISIBILITY.

NOT ALL STATIONS ARE QUALITY CONTROLLED BY THE NATIONAL
WEATHER SERVICE. USE DATA WITH CAUTION...ESPECIALLY
DEWPOINT OBSERVATIONS.

SCZ001>056-GAZ040-063>065-077-130800-
...UPSTATE SOUTH CAROLINA...

CITY SKY/WX TMP DP RH WIND PRES REMARKS
ANDERSON CLEAR 34 13 41 W8 29.91R WCI 27
LIBERTY SUNNY 32 9 38 NW7 29.87R WCI 26
SPARTANBURG CLEAR 32 0 25 NW14 29.89R WCI 22
CLEMSON CLEAR 33 6 32 W9 29.91R WCI 25
GREENVILLE CLEAR 32 10 40 CALM 29.89R
GREENWOOD CLEAR 32 16 51 W7 29.93R WCI 26
GREER CLEAR 31 3 30 N6 29.90R WCI 25
ROCK HILL N/A N/A N/A N/A MISG N/A
CHESTER SUNNY 32 9 37 CALM 29.91R


...CENTRAL SOUTH CAROLINA...

CITY SKY/WX TMP DP RH WIND PRES REMARKS
COLUMBIA APT CLEAR 36 23 59 W6 29.92R WCI 31
COLUMBIA OWENS LGT SNOW 34 25 69 CALM 29.93R
MCENTIRE ANGB CLEAR 30 20 67 NW5 29.92R WCI 25
ORANGEBURG CLEAR 37 22 54 NW5 29.92R WCI 33
SUMTER SHAW CLEAR 34 17 48 W6 29.89R WCI 29
NEWBERRY SUNNY 30 23 74 W3 29.95R
AIKEN FAIR 34 19 55 W7 29.95R WCI 28
BARNWELL N/A 39 21 48 NW8 29.93R WCI 34
MANNING FAIR 34 23 64 MISG 29.92R
CAMDEN FAIR 34 14 44 W5 29.91R WCI 30
LANCASTER SUNNY 32 10 40 W5 29.90R WCI 27
WINNSBORO SUNNY 32 19 59 W5 29.90R WCI 27


...EASTERN AND COASTAL SOUTH CAROLINA...

CITY SKY/WX TMP DP RH WIND PRES REMARKS
N MYRTLE BCH CLEAR 37 16 42 CALM 29.87R
CONWAY FAIR 34 21 60 CALM 29.89R
MARION FAIR 32 19 59 CALM 29.90R
HARTSVILLE FAIR 32 19 59 CALM 29.89R
FLORENCE CLEAR 34 19 54 W3 29.90R
DARLINGTON CLEAR 30 21 69 N5 29.91R WCI 25
CHARLESTON APT CLEAR 41 26 55 NW10 29.91R
MOUNT PLEASANT FAIR 43 30 61 NW6 29.91R
WALTERBORO SUNNY 37 25 60 NW6 29.93R WCI 33
BEAUFORT CLEAR 42 29 59 W9 29.93R


...EASTERN GEORGIA...

CITY SKY/WX TMP DP RH WIND PRES REMARKS
AUGUSTA BUSH F CLEAR 38 22 52 W10 29.95R WCI 31
AUGUSTA DANIEL CLEAR 39 20 46 W9 29.95R WCI 33
THOMSON CLEAR 35 18 49 N12G17 30.00R WCI 27
WASHINGTON FAIR 34 12 40 W12 29.95R WCI 25
CLAXTON FAIR 43 31 62 SW8 29.97R
SYLVANIA SUNNY 38 30 72 NW10 29.96R WCI 32
STATESBORO CLEAR 39 28 64 NW7 29.96R WCI 34
SAVANNAH CLEAR 41 30 65 W8 29.95R


...SOUTHERN NORTH CAROLINA...

CITY SKY/WX TMP DP RH WIND PRES REMARKS
CHARLOTTE CLEAR 31 3 30 W3 29.88R
MONROE CLEAR 31 6 35 NW7 29.87R WCI 24
WADESBORO SUNNY 29 15 56 NW5 29.89R WCI 24
ASHEVILLE CLEAR 24 5 44 N13G24 29.84R WCI 12

$$